Regional Weather Roundup
Issued by NWS Albany, NY

Home | Current Version | Previous Version | Text Only | Print | Product List | Glossary On
Versions: 1 2 3 4 5 6 7 8 9 10 11 12 13 14 15 16 17 18 19 20 21 22 23 24 25 26 27 28 29 30 31 32 33 34 35 36 37 38 39 40 41 42 43 44 45 46 47 48 49 50
000
ASUS41 KALY 162210
RWRALY

NEW YORK STATE HOURLY WEATHER ROUNDUP
NATIONAL WEATHER SERVICE ALBANY NY
500 PM EST TUE DEC 16 2014

NOTE: "FAIR" INDICATES FEW OR NO CLOUDS BELOW 12,000 FEET WITH NO
SIGNIFICANT WEATHER AND/OR NO OBSTRUCTIONS TO VISIBILITY.

NYZ032-033-038>043-046>054-057>066-NYZ062>081-162300-
EAST


CITY           SKY/WX    TMP DP  RH WIND       PRES   REMARKS
ALBANY         CLOUDY    40  34  79 SE8       29.93F WCI  34
GLENS FALLS    CLOUDY    34  30  85 N3        29.95F
POUGHKEEPSIE   CLOUDY    42  36  79 W6        29.94F
NEWBURGH       MOCLDY    41  37  87 SE12      29.95
MONTGOMERY     LGT RAIN  39  37  92 CALM      29.94R FOG
WHITE PLAINS   CLOUDY    41  38  89 E9        29.92F
ISLIP          CLOUDY    45  39  79 E9        29.94F
NEW YORK CITY  CLOUDY    49  40  71 SE7       29.94F
CENTRAL PARK   LGT RAIN  48  39  71 SE7       29.96F
$$

NYZ005>009-017-018-044>046-055-056-162300-
CENTRAL


CITY           SKY/WX    TMP DP  RH WIND       PRES   REMARKS
FULTON         LGT RAIN  38  35  89 SE8       29.79S FOG     WCI  32
SYRACUSE       LGT RAIN  38  37  97 E7        29.82R FOG     WCI  33
ROME           LGT RAIN  36  34  92 E9        29.87F WCI  29
ELMIRA         CLOUDY    44  39  82 SW3       29.80S
BINGHAMTON     CLOUDY    37  36  96 SE10      29.81F FOG     WCI  30
MONTICELLO     CLOUDY    36  36 100 E8        29.90F VSB 1   WCI  29
$$

NYZ026>034-041>043-162300-
NORTH


CITY           SKY/WX    TMP DP  RH WIND       PRES   REMARKS
WATERTOWN      LGT RAIN  38  33  82 N3        29.81S
FORT DRUM      NOT AVBL
MASSENA        CLOUDY    32  28  85 NE15      29.92S WCI  22
SARANAC LAKE   CLOUDY    29  32 100 NE8       29.83S WCI  21
PLATTSBURGH    CLOUDY    35  32  88 S5        29.94S WCI  31
$$

NYZ001>004-010>016-019>021-162300-
WEST


CITY           SKY/WX    TMP DP  RH WIND       PRES   REMARKS
NIAGARA FALLS  CLOUDY    42  40  92 SE5       29.71R
BUFFALO        LGT RAIN  46  41  82 S9        29.72R
DUNKIRK        CLOUDY    45  42  89 SW8       29.72R
JAMESTOWN      CLOUDY    39  39 100 S8        29.73R VSB 3/4 WCI  34
WELLSVILLE     CLOUDY    38  36  92 S5        29.77R WCI  34
ROCHESTER      CLOUDY    41  39  93 SE6       29.75S
PENN YAN       CLOUDY    43  38  82 S12       29.78S
$$

             KEY
       WCI = WIND CHILL INDEX
       VSB = VISIBILITY
       HX  = HEAT INDEX
$$


USA.gov is the U.S. government's official web portal to all federal, state and local government web resources and services.